SCP
0 0 0 0 0 0 0 0 0 0 0 0 0 0 0 0 0 0 0 0 0 0 0 1 1 1 1 1 1 1 1 1 1 1 1 1 1 1 0 0 0 0 0 0 0 0 -0 0 0
0 0 0 0 0 0 0 0 0 0 0 0 0 0 0 0 0 -0 0 0 0 0 0 0 1 1 1 1 1 1 1 1 1 1 1 1 1 1 0 0 0 0 0 0 0 0 0 0 0
0 0 0 0 0 0 0 0 0 0 0 0 0 0 0 0 0 0 0 0 0 0 0 0 1 1 1 1 1 1 1 1 1 1 1 1 1 1 1 0 0 0 0 0 0 0 0 0 0
0 0 0 0 0 0 0 0 0 0 0 0 0 0 0 0 0 0 0 0 -0 0 0 0 1 1 1 1 1 1 1 1 1 1 0 1 1 1 1 1 0 0 0 0 0 0 0 0 0
0 0 0 0 0 0 0 0 0 0 0 0 0 0 0 0 0 0 0 0 0 0 1 0 1 1 1 1 1 1 1 1 1 0 1 1 1 1 1 0 0 0 0 0 0 0 0 0 0
0 0 0 0 0 0 0 0 0 0 0 0 0 0 0 0 0 0 0 0 0 1 1 1 1 1 1 1 1 0 0 1 1 0 0 1 0 1 0 0 0 0 0 0 0 0 0 0 0
0 0 0 0 0 0 0 0 0 0 0 0 0 0 0 0 0 0 0 0 0 1 2 1 1 1 1 0 0 0 0 1 1 1 0 0 0 0 0 0 0 0 0 0 0 0 0 0 0
0 0 0 0 0 0 0 0 0 0 0 0 0 0 0 0 0 0 0 1 1 1 1 1 1 1 1 0 0 0 0 0 0 0 0 0 0 0 0 0 0 0 0 0 0 0 0 0 0
0 0 0 0 0 0 0 0 0 0 0 0 0 0 0 0 0 1 1 1 1 1 1 1 1 1 1 0 0 0 0 0 0 0 0 0 0 0 0 0 0 0 0 0 0 0 0 0 0
0 0 0 0 0 0 0 0 0 0 0 0 0 0 0 0 0 1 1 1 1 1 1 1 1 1 1 0 0 0 0 0 0 0 0 0 0 0 0 0 0 0 0 0 0 0 0 0 0
0 0 0 0 0 0 0 0 0 0 0 0 0 0 0 0 0 1 0 0 0 1 2 1 1 1 1 0 0 0 0 0 0 0 0 0 0 0 0 0 0 0 0 0 0 0 0 0 0
0 0 0 0 0 0 0 0 0 0 0 0 0 0 0 0 0 0 0 0 0 1 1 1 1 1 1 0 1 0 0 0 0 0 0 0 0 0 0 0 0 0 0 0 0 0 0 0 0
0 0 0 0 0 0 0 0 0 0 0 0 0 0 0 0 0 0 0 0 1 1 1 2 1 1 1 1 0 0 0 0 0 0 0 0 0 0 0 0 0 0 0 0 0 0 0 0 0
0 0 0 0 0 0 0 0 0 0 0 0 0 0 0 0 0 0 0 0 0 1 1 1 1 1 1 1 0 0 0 0 0 0 0 0 0 0 0 0 0 0 0 0 0 0 0 0 0
0 0 0 0 0 0 0 0 0 0 0 0 0 0 0 0 0 0 0 0 0 1 2 2 1 1 0 0 0 0 0 0 0 0 0 0 0 0 0 0 0 0 0 0 0 0 0 0 0
0 0 0 0 0 0 0 0 0 0 0 0 0 0 0 0 0 0 0 0 0 1 1 1 1 1 0 0 0 0 0 0 0 0 0 0 0 0 0 0 0 0 0 0 0 0 0 0 0
0 0 0 0 0 0 0 0 0 0 0 0 0 0 0 0 0 0 0 0 0 0 1 1 1 0 0 0 0 0 0 0 0 0 0 0 0 0 0 0 0 0 0 0 0 0 0 0 0
0 0 0 0 0 0 0 0 0 0 0 0 0 0 0 0 0 0 0 0 0 0 1 1 1 0 0 0 0 0 0 0 0 0 0 0 0 0 0 0 0 0 0 0 0 0 0 0 0
0 0 0 -0 0 0 0 0 0 0 0 0 0 0 0 0 0 0 0 0 0 0 1 1 0 0 0 0 0 0 0 0 0 0 0 0 0 0 0 0 0 0 0 0 0 0 0 0 0
0 0 0 0 0 0 0 0 0 0 0 0 0 0 0 0 0 0 0 0 0 0 0 1 1 0 0 0 0 0 0 0 0 0 0 0 0 0 0 0 0 0 0 0 0 0 0 0 0
0 0 0 0 0 0 0 0 0 0 0 0 0 0 0 0 0 0 0 0 0 0 0 0 1 0 0 0 0 0 0 0 0 0 0 0 0 0 0 0 0 0 0 0 0 0 0 0 0
-0 0 0 0 0 0 0 0 0 0 0 0 0 0 0 0 0 0 0 0 0 0 0 0 0 0 0 0 0 0 0 0 0 0 0 0 0 0 0 0 0 0 0 0 0 0 0 0 0
0 -0 0 0 0 0 0 0 0 0 0 0 0 0 0 0 0 0 0 0 0 0 0 0 0 0 0 0 0 0 0 0 0 0 0 0 0 0 0 0 0 0 0 0 0 0 0 0 0
0 -0 0 -0 -0 0 -0 0 0 0 0 0 0 0 0 0 0 0 0 0 0 0 0 0 0 0 0 0 0 0 0 0 0 0 0 0 0 0 0 0 0 0 0 0 0 0 0 0 0
0 0 0 0 0 0 0 0 -0 -0 -0 0 0 0 0 0 0 0 0 0 0 0 0 0 0 0 0 0 0 0 0 0 0 0 0 0 0 0 0 0 0 0 0 0 0 0 0 0 0
0 0 0 0 0 0 0 0 0 0 -0 0 0 -0 0 0 0 0 0 0 0 0 0 0 0 0 0 0 0 0 0 0 0 0 0 0 0 0 0 0 0 0 0 0 0 0 0 0 0
-0 -0 0 -0 0 0 0 0 0 -0 -0 0 0 0 0 0 0 0 0 0 0 0 0 0 0 0 0 0 0 0 0 0 0 0 0 0 0 0 0 0 0 0 0 0 0 0 0 0 0
0 0 -0 0 0 0 0 0 -0 0 -0 0 0 0 0 0 0 0 0 0 0 0 0 0 0 0 0 0 0 0 0 0 0 0 0 0 0 0 0 0 0 0 0 0 0 0 0 0 0
-0 -0 0 0 0 0 0 0 -0 -0 0 0 0 0 0 0 0 0 0 0 0 0 0 0 0 0 0 0 0 0 0 0 0 0 0 0 0 0 0 0 0 0 0 0 0 0 0 0 0
0 0 0 0 -0 -0 -0 0 -0 -0 0 -0 0 0 0 0 0 0 0 0 0 0 0 0 0 0 0 0 0 0 0 0 0 0 0 0 0 0 0 0 0 0 0 0 0 0 0 0 0
Wind_Speed_500mb
25 23 15 10 9 12 29 34 31 38 45 33 39 15 15 35 14 9 13 26 28 41 46 33 56 64 61 58 54 54 52 51 49 45 44 42 40 37 35 32 29 28 30 31 23 20 19 16 15
14 21 13 16 13 26 26 39 42 39 46 21 14 30 14 27 35 32 10 10 13 39 43 40 59 66 60 57 54 53 53 53 51 48 45 43 40 39 36 34 31 32 31 28 19 18 19 18 16
24 27 18 8 19 34 33 37 30 42 63 54 17 24 31 15 38 44 26 25 11 39 44 44 66 67 62 57 53 52 53 52 53 51 47 43 42 40 38 36 34 34 33 25 20 21 21 21 20
15 26 27 17 42 42 52 45 40 44 43 29 37 10 35 46 30 11 18 24 15 39 40 47 68 66 61 56 53 53 54 53 52 53 50 44 43 40 38 37 37 35 29 23 22 24 25 23 22
28 22 18 29 52 49 39 52 65 51 42 26 29 30 52 26 36 33 24 28 25 41 41 41 63 64 61 57 53 50 51 51 52 53 51 48 42 38 39 40 39 35 27 25 28 27 25 22 19
18 22 18 39 57 50 45 65 63 40 48 38 33 25 40 56 35 42 48 39 32 45 52 45 60 63 61 59 54 53 53 52 51 52 49 50 47 47 43 45 39 34 31 33 31 27 23 20 18
32 21 34 44 48 46 46 67 44 44 52 52 42 17 29 41 39 34 32 28 39 53 58 52 58 66 62 60 58 56 55 51 52 55 56 53 55 53 57 42 35 37 38 33 29 25 22 19 16
49 22 44 44 47 66 49 62 68 66 58 73 54 27 21 42 49 40 29 39 54 63 59 55 60 69 66 63 58 56 55 53 53 57 56 53 56 55 45 41 39 38 34 30 27 24 20 18 17
54 31 37 60 62 63 37 40 80 77 60 55 58 49 59 32 28 30 44 52 53 49 54 57 60 68 69 67 65 61 58 56 54 53 53 56 57 55 46 44 42 38 34 29 25 22 19 18 18
39 37 60 63 55 51 46 55 64 51 57 38 44 55 57 41 35 43 40 46 46 54 57 59 65 74 75 73 71 69 61 56 57 57 54 49 52 52 52 48 43 39 35 30 25 23 23 22 21
51 49 54 53 76 75 58 59 59 41 47 55 36 56 63 62 37 45 46 48 50 60 64 67 72 74 76 79 76 75 72 72 68 62 62 57 57 57 52 50 46 41 35 30 29 28 26 25 23
47 55 64 74 82 73 54 69 43 60 70 69 52 47 47 50 61 56 57 56 50 63 68 69 76 79 81 83 79 78 79 79 74 69 66 66 64 58 54 49 46 42 38 35 32 29 24 22 19
46 56 72 76 82 77 68 54 58 63 88 68 69 61 52 49 39 61 58 55 52 56 69 79 79 85 82 81 81 81 75 72 74 73 71 71 62 58 53 49 47 43 40 36 32 28 25 22 20
50 56 60 71 71 70 55 57 68 89 78 73 65 68 63 42 35 37 49 51 56 61 66 78 81 82 88 89 82 77 71 67 69 73 74 70 61 57 55 53 50 45 41 38 33 29 26 25 23
43 45 40 49 61 58 63 55 56 80 74 70 67 70 70 58 47 48 41 51 52 64 64 72 83 83 88 84 81 78 72 68 66 73 78 68 64 61 57 54 51 47 45 42 38 34 31 29 26
42 44 35 38 39 51 52 57 49 60 70 70 64 73 73 75 78 57 47 47 55 61 70 66 78 87 90 92 87 82 76 72 67 71 73 63 60 60 60 57 54 51 48 44 39 36 34 32 29
27 38 46 53 44 46 54 57 49 65 69 58 78 83 82 76 74 82 78 61 48 61 68 75 78 79 86 93 87 85 80 77 69 68 66 64 64 62 62 61 57 55 50 46 42 41 38 35 32
37 35 40 43 38 37 58 56 47 81 76 66 66 66 65 98 94 76 79 72 75 56 62 57 78 76 85 81 98 89 83 81 74 70 67 64 65 66 65 61 59 57 53 51 50 42 38 35 32
48 48 48 40 47 47 45 46 45 53 48 59 69 68 71 73 79 105 80 60 75 75 67 65 60 81 80 86 85 88 86 83 77 79 77 72 70 67 67 65 63 59 58 56 50 45 43 41 40
44 48 46 41 38 39 41 46 43 49 41 44 51 57 87 88 78 64 96 99 67 79 74 73 70 64 89 87 78 85 92 87 82 85 82 77 73 69 68 71 72 67 65 60 55 52 50 49 46
44 42 45 44 44 43 42 48 42 43 43 57 64 61 68 66 61 72 57 84 90 89 89 87 85 81 75 76 85 83 86 91 91 90 86 83 81 79 76 74 76 75 72 65 60 58 59 58 50
42 39 43 45 36 31 21 32 34 35 45 41 40 57 59 69 59 54 43 69 78 74 76 79 78 78 78 77 79 86 88 95 103 99 95 92 90 85 78 79 80 80 73 69 67 66 62 58 54
27 31 34 31 27 25 37 18 31 33 43 35 40 62 64 67 78 65 61 40 49 57 62 67 66 75 80 75 75 81 91 94 91 97 97 95 93 87 83 85 87 84 79 75 72 70 66 63 60
34 30 28 22 16 25 37 21 32 34 44 33 38 57 73 73 82 75 65 57 52 46 44 50 55 72 78 68 74 80 86 89 91 91 92 98 95 93 91 86 91 88 84 82 78 72 69 67 62
12 14 5 8 11 20 21 23 37 22 40 40 42 47 60 78 81 75 68 68 59 47 40 47 55 69 74 70 66 76 84 88 88 92 92 90 96 100 100 95 95 96 92 87 84 78 73 70 69
32 8 6 11 7 16 18 11 8 23 29 42 24 26 51 29 25 30 20 40 49 47 49 48 52 56 64 73 73 76 77 84 86 84 82 87 89 90 92 97 98 98 97 91 88 84 77 73 70
12 16 25 14 33 15 11 14 8 38 39 37 30 45 48 49 51 38 24 22 33 35 37 47 48 50 50 59 66 67 70 78 84 83 84 84 85 85 83 85 95 100 99 97 93 90 83 78 72
12 12 14 7 9 7 8 1 14 33 31 29 29 28 33 38 42 30 20 11 4 14 27 36 45 47 54 57 56 63 68 74 75 79 80 85 85 83 82 78 81 91 98 98 97 92 86 79 76
9 12 11 14 9 5 7 7 16 19 20 22 22 28 32 41 41 34 26 21 12 12 17 24 32 41 51 54 57 56 63 68 70 74 78 84 81 83 80 74 72 77 87 95 99 95 89 84 79
6 9 12 8 11 9 8 6 9 19 18 21 21 32 30 30 32 32 32 29 22 16 15 15 22 28 36 46 57 54 53 57 62 67 73 75 79 76 76 69 63 70 81 88 95 96 93 89 84
Wind_Direction_500mb
243 208 172 224 237 235 237 236 252 257 267 265 279 289 273 253 231 207 132 185 148 199 219 219 204 201 198 194 190 188 188 184 185 186 183 180 179 179 180 177 177 176 172 173 179 169 168 168 163
228 197 203 243 241 239 234 242 239 249 259 246 235 294 252 272 238 259 248 214 180 203 224 215 200 201 197 194 191 189 188 188 183 189 187 182 183 183 184 183 182 176 172 179 176 170 165 166 159
181 198 215 211 240 237 245 246 243 242 247 242 203 234 266 254 242 255 252 254 240 195 233 214 196 198 196 196 191 189 190 188 185 187 188 184 185 186 187 187 182 178 182 188 174 164 162 158 149
182 207 254 248 238 232 236 253 266 286 300 241 224 215 227 239 254 207 228 243 191 192 225 208 194 195 197 194 190 187 189 187 188 185 188 183 185 187 190 191 188 187 189 176 174 165 162 156 151
210 222 231 236 244 248 251 237 243 257 270 262 259 239 250 266 236 237 238 254 186 190 217 206 194 192 194 194 191 188 188 189 187 187 187 182 183 188 191 189 187 185 184 182 170 167 163 162 162
215 227 239 230 243 242 239 252 268 268 269 241 248 259 256 242 249 238 248 253 183 190 204 204 196 191 195 196 191 185 187 186 184 184 181 184 183 186 188 185 183 189 184 174 171 170 171 173 174
233 232 234 246 257 256 240 241 242 246 259 258 251 224 257 247 246 228 238 219 182 204 201 199 197 196 197 197 190 184 189 187 183 180 178 180 180 181 184 184 183 180 178 176 177 177 179 182 185
236 245 254 250 254 255 250 262 251 239 238 253 239 257 249 254 236 228 190 182 200 207 203 202 200 194 196 197 192 188 186 185 185 182 183 184 188 187 182 183 180 180 183 183 182 185 191 196 201
243 235 236 239 243 245 252 252 269 274 285 241 240 244 255 243 195 195 201 201 204 207 201 203 198 196 195 195 189 188 185 186 184 183 188 190 187 190 186 186 186 186 185 188 189 193 194 192 191
235 237 235 237 244 254 256 260 268 276 274 253 241 248 250 254 204 201 219 215 200 198 199 204 202 197 197 196 191 184 187 192 195 192 197 196 196 198 189 188 190 187 188 191 191 191 191 189 187
235 240 247 253 254 259 270 267 273 271 268 263 244 228 249 255 204 206 227 228 222 201 202 206 203 201 197 200 194 193 193 194 197 195 196 197 197 200 194 193 191 191 192 193 193 193 196 196 194
265 253 248 255 258 266 272 280 280 271 266 274 263 249 246 270 230 223 227 232 220 206 206 207 207 206 203 202 192 194 191 192 194 197 200 201 203 200 198 197 194 194 196 197 199 202 199 204 206
263 267 269 264 263 264 266 265 271 271 272 276 265 272 271 272 265 222 221 228 218 213 210 211 211 208 207 201 198 196 194 201 196 196 200 203 205 202 198 198 200 198 200 201 204 204 205 208 213
291 290 288 283 280 270 253 257 262 262 265 267 264 268 263 253 243 226 225 224 221 216 217 212 214 211 210 211 205 204 200 207 202 201 203 207 207 205 200 203 204 204 204 206 207 209 211 213 215
304 300 294 279 273 272 274 270 257 253 261 260 259 260 264 264 253 229 232 228 228 214 213 216 216 215 214 213 213 214 213 210 211 210 203 211 205 206 208 209 209 208 209 209 210 212 215 218 221
276 278 283 275 279 282 264 263 265 266 251 254 250 258 260 261 257 249 238 238 225 217 209 217 217 216 218 219 218 215 213 212 213 215 214 216 217 210 212 212 212 212 213 215 216 217 218 219 225
253 270 268 276 261 262 261 268 262 266 266 255 241 245 254 255 257 251 245 245 230 226 228 219 221 217 219 223 223 218 216 215 216 217 222 221 220 220 217 215 214 216 216 217 218 218 220 224 225
266 262 268 264 266 285 266 262 266 245 248 258 260 259 250 237 246 245 240 241 233 224 229 227 217 218 217 226 226 221 218 216 217 218 223 225 226 222 222 220 217 218 219 219 220 219 221 224 226
258 269 280 293 289 285 276 281 273 256 247 242 245 252 261 257 252 238 233 239 226 221 220 226 219 215 212 206 214 218 220 220 218 221 223 223 225 227 223 226 226 222 223 224 224 221 223 222 219
286 276 276 265 271 275 279 274 274 284 285 288 276 251 234 245 249 251 226 229 233 218 223 223 225 217 216 224 225 230 226 222 227 225 224 225 227 229 232 228 229 226 224 221 220 223 222 222 221
273 267 268 269 277 275 282 279 272 266 267 268 270 274 267 245 246 243 236 223 229 227 224 230 227 228 226 224 223 227 229 223 222 224 225 226 227 228 227 231 228 229 227 225 224 228 227 227 220
275 265 269 270 274 271 279 284 281 268 260 254 260 258 260 256 264 242 240 224 221 222 225 226 215 222 224 222 219 218 219 222 224 225 224 225 226 226 226 229 231 230 229 227 227 229 230 229 227
286 293 264 266 262 274 258 257 265 256 258 251 240 249 253 245 245 248 243 247 225 226 233 229 222 216 220 221 224 219 219 224 228 228 227 228 229 230 226 227 231 231 231 231 230 229 228 231 229
277 282 271 266 269 252 251 226 259 242 242 245 247 239 240 244 233 236 241 246 245 237 226 227 217 214 224 224 228 226 222 219 220 227 228 228 227 229 231 228 230 232 231 232 233 232 233 233 236
271 292 257 223 215 249 247 220 237 254 239 238 233 237 244 232 228 227 225 233 240 227 215 217 233 222 222 224 220 226 226 221 223 227 229 230 229 228 230 230 228 231 232 231 233 233 234 234 235
306 237 278 281 253 291 313 256 269 10 338 257 271 347 20 258 164 161 163 168 179 200 213 215 222 222 224 226 226 222 226 223 222 226 231 235 237 236 234 233 232 231 232 233 233 235 235 235 233
339 324 304 269 248 262 238 277 127 12 20 6 9 36 16 17 42 63 93 121 147 157 170 197 210 213 224 235 234 232 229 225 222 222 228 235 240 243 241 239 235 233 234 233 233 234 234 232 233
292 325 327 331 296 268 269 305 341 356 356 358 12 31 10 4 20 25 21 14 135 215 214 211 214 216 217 220 228 235 231 232 230 224 221 231 238 244 244 239 238 236 237 237 234 233 233 232 233
353 1 331 278 231 270 308 67 356 357 359 356 5 16 17 20 26 21 10 2 342 285 257 241 233 227 224 224 222 225 233 234 232 229 229 229 235 239 244 242 239 240 239 237 235 233 232 232 232
93 9 322 289 318 312 283 58 16 16 1 3 4 9 22 28 30 34 30 21 7 340 311 280 259 247 236 227 222 220 224 229 231 232 229 228 232 239 244 243 240 243 242 239 236 233 231 231 231
Wind_Speed_850mb
25 23 15 10 9 12 29 34 31 38 45 33 39 15 15 35 14 9 13 26 28 41 46 33 56 64 61 58 54 54 52 51 49 45 44 42 40 37 35 32 29 28 30 31 23 20 19 16 15
14 21 13 16 13 26 26 39 42 39 46 21 14 30 14 27 35 32 10 10 13 39 43 40 59 66 60 57 54 53 53 53 51 48 45 43 40 39 36 34 31 32 31 28 19 18 19 18 16
24 27 18 8 19 34 33 37 30 42 63 54 17 24 31 15 38 44 26 25 11 39 44 44 66 67 62 57 53 52 53 52 53 51 47 43 42 40 38 36 34 34 33 25 20 21 21 21 20
15 26 27 17 42 42 52 45 40 44 43 29 37 10 35 46 30 11 18 24 15 39 40 47 68 66 61 56 53 53 54 53 52 53 50 44 43 40 38 37 37 35 29 23 22 24 25 23 22
28 22 18 29 52 49 39 52 65 51 42 26 29 30 52 26 36 33 24 28 25 41 41 41 63 64 61 57 53 50 51 51 52 53 51 48 42 38 39 40 39 35 27 25 28 27 25 22 19
18 22 18 39 57 50 45 65 63 40 48 38 33 25 40 56 35 42 48 39 32 45 52 45 60 63 61 59 54 53 53 52 51 52 49 50 47 47 43 45 39 34 31 33 31 27 23 20 18
32 21 34 44 48 46 46 67 44 44 52 52 42 17 29 41 39 34 32 28 39 53 58 52 58 66 62 60 58 56 55 51 52 55 56 53 55 53 57 42 35 37 38 33 29 25 22 19 16
49 22 44 44 47 66 49 62 68 66 58 73 54 27 21 42 49 40 29 39 54 63 59 55 60 69 66 63 58 56 55 53 53 57 56 53 56 55 45 41 39 38 34 30 27 24 20 18 17
54 31 37 60 62 63 37 40 80 77 60 55 58 49 59 32 28 30 44 52 53 49 54 57 60 68 69 67 65 61 58 56 54 53 53 56 57 55 46 44 42 38 34 29 25 22 19 18 18
39 37 60 63 55 51 46 55 64 51 57 38 44 55 57 41 35 43 40 46 46 54 57 59 65 74 75 73 71 69 61 56 57 57 54 49 52 52 52 48 43 39 35 30 25 23 23 22 21
51 49 54 53 76 75 58 59 59 41 47 55 36 56 63 62 37 45 46 48 50 60 64 67 72 74 76 79 76 75 72 72 68 62 62 57 57 57 52 50 46 41 35 30 29 28 26 25 23
47 55 64 74 82 73 54 69 43 60 70 69 52 47 47 50 61 56 57 56 50 63 68 69 76 79 81 83 79 78 79 79 74 69 66 66 64 58 54 49 46 42 38 35 32 29 24 22 19
46 56 72 76 82 77 68 54 58 63 88 68 69 61 52 49 39 61 58 55 52 56 69 79 79 85 82 81 81 81 75 72 74 73 71 71 62 58 53 49 47 43 40 36 32 28 25 22 20
50 56 60 71 71 70 55 57 68 89 78 73 65 68 63 42 35 37 49 51 56 61 66 78 81 82 88 89 82 77 71 67 69 73 74 70 61 57 55 53 50 45 41 38 33 29 26 25 23
43 45 40 49 61 58 63 55 56 80 74 70 67 70 70 58 47 48 41 51 52 64 64 72 83 83 88 84 81 78 72 68 66 73 78 68 64 61 57 54 51 47 45 42 38 34 31 29 26
42 44 35 38 39 51 52 57 49 60 70 70 64 73 73 75 78 57 47 47 55 61 70 66 78 87 90 92 87 82 76 72 67 71 73 63 60 60 60 57 54 51 48 44 39 36 34 32 29
27 38 46 53 44 46 54 57 49 65 69 58 78 83 82 76 74 82 78 61 48 61 68 75 78 79 86 93 87 85 80 77 69 68 66 64 64 62 62 61 57 55 50 46 42 41 38 35 32
37 35 40 43 38 37 58 56 47 81 76 66 66 66 65 98 94 76 79 72 75 56 62 57 78 76 85 81 98 89 83 81 74 70 67 64 65 66 65 61 59 57 53 51 50 42 38 35 32
48 48 48 40 47 47 45 46 45 53 48 59 69 68 71 73 79 105 80 60 75 75 67 65 60 81 80 86 85 88 86 83 77 79 77 72 70 67 67 65 63 59 58 56 50 45 43 41 40
44 48 46 41 38 39 41 46 43 49 41 44 51 57 87 88 78 64 96 99 67 79 74 73 70 64 89 87 78 85 92 87 82 85 82 77 73 69 68 71 72 67 65 60 55 52 50 49 46
44 42 45 44 44 43 42 48 42 43 43 57 64 61 68 66 61 72 57 84 90 89 89 87 85 81 75 76 85 83 86 91 91 90 86 83 81 79 76 74 76 75 72 65 60 58 59 58 50
42 39 43 45 36 31 21 32 34 35 45 41 40 57 59 69 59 54 43 69 78 74 76 79 78 78 78 77 79 86 88 95 103 99 95 92 90 85 78 79 80 80 73 69 67 66 62 58 54
27 31 34 31 27 25 37 18 31 33 43 35 40 62 64 67 78 65 61 40 49 57 62 67 66 75 80 75 75 81 91 94 91 97 97 95 93 87 83 85 87 84 79 75 72 70 66 63 60
34 30 28 22 16 25 37 21 32 34 44 33 38 57 73 73 82 75 65 57 52 46 44 50 55 72 78 68 74 80 86 89 91 91 92 98 95 93 91 86 91 88 84 82 78 72 69 67 62
12 14 5 8 11 20 21 23 37 22 40 40 42 47 60 78 81 75 68 68 59 47 40 47 55 69 74 70 66 76 84 88 88 92 92 90 96 100 100 95 95 96 92 87 84 78 73 70 69
32 8 6 11 7 16 18 11 8 23 29 42 24 26 51 29 25 30 20 40 49 47 49 48 52 56 64 73 73 76 77 84 86 84 82 87 89 90 92 97 98 98 97 91 88 84 77 73 70
12 16 25 14 33 15 11 14 8 38 39 37 30 45 48 49 51 38 24 22 33 35 37 47 48 50 50 59 66 67 70 78 84 83 84 84 85 85 83 85 95 100 99 97 93 90 83 78 72
12 12 14 7 9 7 8 1 14 33 31 29 29 28 33 38 42 30 20 11 4 14 27 36 45 47 54 57 56 63 68 74 75 79 80 85 85 83 82 78 81 91 98 98 97 92 86 79 76
9 12 11 14 9 5 7 7 16 19 20 22 22 28 32 41 41 34 26 21 12 12 17 24 32 41 51 54 57 56 63 68 70 74 78 84 81 83 80 74 72 77 87 95 99 95 89 84 79
6 9 12 8 11 9 8 6 9 19 18 21 21 32 30 30 32 32 32 29 22 16 15 15 22 28 36 46 57 54 53 57 62 67 73 75 79 76 76 69 63 70 81 88 95 96 93 89 84
Wind_Direction_850mb
243 208 172 224 237 235 237 236 252 257 267 265 279 289 273 253 231 207 132 185 148 199 219 219 204 201 198 194 190 188 188 184 185 186 183 180 179 179 180 177 177 176 172 173 179 169 168 168 163
228 197 203 243 241 239 234 242 239 249 259 246 235 294 252 272 238 259 248 214 180 203 224 215 200 201 197 194 191 189 188 188 183 189 187 182 183 183 184 183 182 176 172 179 176 170 165 166 159
181 198 215 211 240 237 245 246 243 242 247 242 203 234 266 254 242 255 252 254 240 195 233 214 196 198 196 196 191 189 190 188 185 187 188 184 185 186 187 187 182 178 182 188 174 164 162 158 149
182 207 254 248 238 232 236 253 266 286 300 241 224 215 227 239 254 207 228 243 191 192 225 208 194 195 197 194 190 187 189 187 188 185 188 183 185 187 190 191 188 187 189 176 174 165 162 156 151
210 222 231 236 244 248 251 237 243 257 270 262 259 239 250 266 236 237 238 254 186 190 217 206 194 192 194 194 191 188 188 189 187 187 187 182 183 188 191 189 187 185 184 182 170 167 163 162 162
215 227 239 230 243 242 239 252 268 268 269 241 248 259 256 242 249 238 248 253 183 190 204 204 196 191 195 196 191 185 187 186 184 184 181 184 183 186 188 185 183 189 184 174 171 170 171 173 174
233 232 234 246 257 256 240 241 242 246 259 258 251 224 257 247 246 228 238 219 182 204 201 199 197 196 197 197 190 184 189 187 183 180 178 180 180 181 184 184 183 180 178 176 177 177 179 182 185
236 245 254 250 254 255 250 262 251 239 238 253 239 257 249 254 236 228 190 182 200 207 203 202 200 194 196 197 192 188 186 185 185 182 183 184 188 187 182 183 180 180 183 183 182 185 191 196 201
243 235 236 239 243 245 252 252 269 274 285 241 240 244 255 243 195 195 201 201 204 207 201 203 198 196 195 195 189 188 185 186 184 183 188 190 187 190 186 186 186 186 185 188 189 193 194 192 191
235 237 235 237 244 254 256 260 268 276 274 253 241 248 250 254 204 201 219 215 200 198 199 204 202 197 197 196 191 184 187 192 195 192 197 196 196 198 189 188 190 187 188 191 191 191 191 189 187
235 240 247 253 254 259 270 267 273 271 268 263 244 228 249 255 204 206 227 228 222 201 202 206 203 201 197 200 194 193 193 194 197 195 196 197 197 200 194 193 191 191 192 193 193 193 196 196 194
265 253 248 255 258 266 272 280 280 271 266 274 263 249 246 270 230 223 227 232 220 206 206 207 207 206 203 202 192 194 191 192 194 197 200 201 203 200 198 197 194 194 196 197 199 202 199 204 206
263 267 269 264 263 264 266 265 271 271 272 276 265 272 271 272 265 222 221 228 218 213 210 211 211 208 207 201 198 196 194 201 196 196 200 203 205 202 198 198 200 198 200 201 204 204 205 208 213
291 290 288 283 280 270 253 257 262 262 265 267 264 268 263 253 243 226 225 224 221 216 217 212 214 211 210 211 205 204 200 207 202 201 203 207 207 205 200 203 204 204 204 206 207 209 211 213 215
304 300 294 279 273 272 274 270 257 253 261 260 259 260 264 264 253 229 232 228 228 214 213 216 216 215 214 213 213 214 213 210 211 210 203 211 205 206 208 209 209 208 209 209 210 212 215 218 221
276 278 283 275 279 282 264 263 265 266 251 254 250 258 260 261 257 249 238 238 225 217 209 217 217 216 218 219 218 215 213 212 213 215 214 216 217 210 212 212 212 212 213 215 216 217 218 219 225
253 270 268 276 261 262 261 268 262 266 266 255 241 245 254 255 257 251 245 245 230 226 228 219 221 217 219 223 223 218 216 215 216 217 222 221 220 220 217 215 214 216 216 217 218 218 220 224 225
266 262 268 264 266 285 266 262 266 245 248 258 260 259 250 237 246 245 240 241 233 224 229 227 217 218 217 226 226 221 218 216 217 218 223 225 226 222 222 220 217 218 219 219 220 219 221 224 226
258 269 280 293 289 285 276 281 273 256 247 242 245 252 261 257 252 238 233 239 226 221 220 226 219 215 212 206 214 218 220 220 218 221 223 223 225 227 223 226 226 222 223 224 224 221 223 222 219
286 276 276 265 271 275 279 274 274 284 285 288 276 251 234 245 249 251 226 229 233 218 223 223 225 217 216 224 225 230 226 222 227 225 224 225 227 229 232 228 229 226 224 221 220 223 222 222 221
273 267 268 269 277 275 282 279 272 266 267 268 270 274 267 245 246 243 236 223 229 227 224 230 227 228 226 224 223 227 229 223 222 224 225 226 227 228 227 231 228 229 227 225 224 228 227 227 220
275 265 269 270 274 271 279 284 281 268 260 254 260 258 260 256 264 242 240 224 221 222 225 226 215 222 224 222 219 218 219 222 224 225 224 225 226 226 226 229 231 230 229 227 227 229 230 229 227
286 293 264 266 262 274 258 257 265 256 258 251 240 249 253 245 245 248 243 247 225 226 233 229 222 216 220 221 224 219 219 224 228 228 227 228 229 230 226 227 231 231 231 231 230 229 228 231 229
277 282 271 266 269 252 251 226 259 242 242 245 247 239 240 244 233 236 241 246 245 237 226 227 217 214 224 224 228 226 222 219 220 227 228 228 227 229 231 228 230 232 231 232 233 232 233 233 236
271 292 257 223 215 249 247 220 237 254 239 238 233 237 244 232 228 227 225 233 240 227 215 217 233 222 222 224 220 226 226 221 223 227 229 230 229 228 230 230 228 231 232 231 233 233 234 234 235
306 237 278 281 253 291 313 256 269 10 338 257 271 347 20 258 164 161 163 168 179 200 213 215 222 222 224 226 226 222 226 223 222 226 231 235 237 236 234 233 232 231 232 233 233 235 235 235 233
339 324 304 269 248 262 238 277 127 12 20 6 9 36 16 17 42 63 93 121 147 157 170 197 210 213 224 235 234 232 229 225 222 222 228 235 240 243 241 239 235 233 234 233 233 234 234 232 233
292 325 327 331 296 268 269 305 341 356 356 358 12 31 10 4 20 25 21 14 135 215 214 211 214 216 217 220 228 235 231 232 230 224 221 231 238 244 244 239 238 236 237 237 234 233 233 232 233
353 1 331 278 231 270 308 67 356 357 359 356 5 16 17 20 26 21 10 2 342 285 257 241 233 227 224 224 222 225 233 234 232 229 229 229 235 239 244 242 239 240 239 237 235 233 232 232 232
93 9 322 289 318 312 283 58 16 16 1 3 4 9 22 28 30 34 30 21 7 340 311 280 259 247 236 227 222 220 224 229 231 232 229 228 232 239 244 243 240 243 242 239 236 233 231 231 231